User: anonymous   Login
Location: Unspecified
(0.0000°N, 0.0000°E)
Time: 09:18:12
(UTC+00:00)
Language:

NATO 4B - Orbit

View from above orbital plane
View from above orbital plane
View from above satellite
View from above satellite

Ground track
Ground track

The orbit data is extracted from the following two-line orbital elements,

1 22921U 93076A   18017.85688253 -.00000212 +00000-0 +00000-0 0  9999
2 22921 012.2163 020.6514 0006428 285.2933 253.3620 00.98519298088348
Epoch (UTC): 17 January 2018 20:33:54
Eccentricity: 0.0006428
inclination: 12.2163°
perigee height: 36257 km
apogee height: 36312 km
right ascension of ascending node: 20.6514°
argument of perigee: 285.2933°
revolutions per day: 0.98519298
mean anomaly at epoch: 253.3620°
orbit number at epoch: 8834

The dashed part of the orbit path shows where the satellite is in the earth's shadow,  

DLR